Regional Weather Roundup
Issued by NWS

Home | Current Version | Previous Version | Text Only | Print | Product List | Glossary Off
Versions: 1 2 3 4 5 6 7 8 9 10 11 12 13 14 15 16 17 18 19 20 21 22 23 24 25 26 27 28 29 30 31 32 33 34 35 36 37 38 39 40 41 42 43 44 45 46 47 48 49 50

000
ASUS45 KBOU 312207
RWRCO

WEATHER ROUNDUP FOR COLORADO
NATIONAL WEATHER SERVICE DENVER/BOULDER CO
300 PM MST SAT JAN 31 2015

NOTE: "FAIR" INDICATES FEW OR NO CLOUDS BELOW 12000 FEET WITH NO
SIGNIFICANT WEATHER AND/OR OBSTRUCTIONS TO VISIBILITY.

COZ001>005-013-030-031-312300-
...NORTHWEST COLORADO...

CITY           SKY/WX    TMP DP  RH WIND       PRES   REMARKS
CRAIG          MOSUNNY   34  27  75 SW10      29.91R WCI  26
HAYDEN         CLOUDY    34  25  69 NW7       29.90S WCI  28
MEEKER         PTSUNNY   38  29  70 W8        29.92R
MOUNT WERNER   NOT AVBL
STEAMBOAT SPGS CLOUDY    31  28  89 S6        29.89R WCI  25
WALDEN         MOSUNNY   34  28  80 NW8       29.83F WCI  27
$$

COZ006>008-011-312300-
...WEST CENTRAL VALLEYS...

CITY           SKY/WX    TMP DP  RH WIND       PRES   REMARKS
GRAND JUNCTION CLOUDY    41  38  89 NW7       29.91S
MONTROSE       LGT RAIN  37  35  92 S5        29.93R
EAGLE          PTSUNNY   37  37 100 W7        29.87S
RIFLE          CLOUDY    42  35  76 W9        29.89R
DELTA          CLOUDY    43  38  83 CALM      29.89S
NUCLA          CLOUDY    39  36  87 W5        29.95R
$$

COZ017>023-064>068-312300-
...SOUTHWEST COLORADO...

CITY           SKY/WX    TMP DP  RH WIND       PRES   REMARKS
DURANGO        CLOUDY    37  34  89 SW6       29.86S
CORTEZ         CLOUDY    38  36  92 W12       29.90R
PAGOSA SPRINGS CLOUDY    37  35  92 SW3       29.86S
TELLURIDE      SNOW      30  30 100 W14       29.91R VSB 1/4 WCI  19
WOLF CREEK PAS SNOW      23  23 100 SW16      29.91R VSB<1/4 WCI  10
$$

COZ009-010-012-014-032>034-037-058>063-312300-
...CENTRAL COLORADO...

CITY           SKY/WX    TMP DP  RH WIND       PRES   REMARKS
ASPEN          LGT SNOW  33  30  88 N8        29.85S FOG     WCI  26
BUENA VISTA    FLURRIES  33  31  91 SE5       29.79F WCI  29
COPPER MTN     SNOW      28  23  80 W15       29.86S VSB<1/4 WCI  17
BERTHOUD PASS  CLOUDY    18  12  79 NW23G32   29.83R WCI   0
COTTONWOOD PAS FOG       34  32  93 CALM      29.81S VSB 1/2
GUNNISON       CLOUDY    36  28  75 SW9       29.85F
KREMMLING      CLOUDY    34  28  80 CALM      29.86S
LEADVILLE      CLOUDY    29  24  82 NW7       29.81S WCI  22
MONARCH PASS   SNOW      23  21  93 W24       29.96S VSB<1/4 WCI   7
SALIDA         CLOUDY    37  34  87 CALM      29.87S
SUNLIGHT       FOG      N/A N/A N/A W3          N/A  VSB<1/4
WILKERSON PASS LGT SNOW N/A N/A N/A N9G16     29.85S
$$

COZ069>075-312300-
...SAN LUIS VALLEY/SANGRE DE CRISTO MOUNTAINS...

CITY           SKY/WX    TMP DP  RH WIND       PRES   REMARKS
ALAMOSA        LGT SNOW  33  30  88 CALM      29.81F FOG
LA VETA PASS   SNOW      27  25  93 MISG      29.78F VSB 1/2
SAGUACHE       LGT SNOW  32  30  93 CALM      29.83S
$$

COZ035-036-038>040-312300-
...NORTHERN COLORADO FRONT RANGE...

CITY           SKY/WX    TMP DP  RH WIND       PRES   REMARKS
DENVER INTL AP LGT SNOW  35  30  82 N3        29.80F
DMNS CITY PARK   N/A     37  26  64 NW2       29.80S
AURORA         LGT SNOW  33  31  92 E1        29.80F
FRONT RANGE AP NOT AVBL
ERIE MUNI ARPT CLOUDY    38  30  72 E3        29.80F
BOULDER MUN AP CLOUDY    37  27  65 CALM      29.80S
CENTENNIAL     FLURRIES  35  27  72 VRB3      29.79F
BROOMFIELD     PTSUNNY   37  27  65 CALM      29.80F
FORT COLLINS   CLOUDY    39  28  65 S7        29.82S
LONGMONT       CLOUDY    42  27  56 E3        29.82F
$$

COZ041-046-047-076>085-087-088-312300-
...PIKES PEAK/PALMER DIVIDE AND SOUTHERN FOOTHILLS...

CITY           SKY/WX    TMP DP  RH WIND       PRES   REMARKS
COLO. SPRINGS  LGT SNOW  35  33  92 CALM      29.79S FOG
A. F. ACADEMY  LGT SNOW  34  32  93 NW10      29.78R FOG     WCI  26
ELLICOTT       SNOW     N/A N/A N/A N7        29.78S
FALCON         LGT SNOW  32  31  96 N7        29.79S VSB 1   WCI  26
FORT CARSON    FLURRIES  35  33  94 N5        29.77S WCI  31
LIMON          LGT SNOW  32  31  96 NW10      29.79S VSB 1   WCI  24
MONUMENT HILL  LGT SNOW  30  28  93 N7        29.78S WCI  23
TRINIDAD       CLOUDY    44  31  60 NE6       29.75F
$$

COZ042>045-048>051-090-091-312300-
...NORTHEAST COLORADO...

CITY           SKY/WX    TMP DP  RH WIND       PRES   REMARKS
GREELEY ARPT   CLOUDY    39  27  60 CALM      29.80S
AKRON          LGT SNOW  34  33  96 N9        29.79S FOG     WCI  27
BURLINGTON     CLOUDY    37  33  85 N10       29.78S
WRAY           LGT RAIN  36  36 100 N6        29.81S
STERLING       DRIZZLE   36  34  93 NE3       29.81S
HOLYOKE        NOT AVBL
FORT MORGAN    DRIZZLE   37  33  87 N3        29.81S
$$

COZ086-089-092>099-312300-
...SOUTHEAST COLORADO...

CITY           SKY/WX    TMP DP  RH WIND       PRES   REMARKS
PUEBLO         CLOUDY    45  31  58 E3        29.76F
LA JUNTA       MOSUNNY   46  33  60 CALM      29.77F
LAMAR          CLOUDY    43  36  76 N7        29.77F
SPRINGFIELD      N/A     45  34  65 NW7       29.75F
$$



USA.gov is the U.S. government's official web portal to all federal, state and local government web resources and services.